CW9888 Weather Reports


Display with metric or nautical units.
time (UTC)temp
F
wind
direction
speed
MPH
gust
MPH
rain 1hr
in
rain 24hr
in
rain mn
in
humidity
%
barometer
mb
20191210181757 60 360 2.0 5.0 0.00 0.04 0.02 85 1014.1
20191210180333 60 360 3.0 5.0 0.00 0.04 0.02 86 1014.3
20191210174832 61 360 3.0 4.0 0.00 0.04 0.02 86 1014.3
20191210173256 61 360 1.0 3.0 0.00 0.04 0.02 85 1014.4
20191210171716 61 360 1.0 2.0 0.00 0.04 0.02 85 1014.2
20191210170220 62 360 1.0 3.0 0.00 0.04 0.02 83 1014.2
20191210164822 62 360 1.0 3.0 0.00 0.19 0.02 83 1014.1
20191210163231 62 360 1.0 2.0 0.00 0.19 0.02 82 1014.2
20191210161648 63 360 0.0 3.0 0.00 0.19 0.02 81 1014.2
20191210160322 63 360 0.0 2.0 0.00 0.19 0.02 81 1014.1
20191210154617 63 360 0.0 2.0 0.00 0.21 0.02 80 1014.0
20191210153214 64 360 1.0 2.0 0.00 0.21 0.02 79 1013.9
20191210151626 64 360 0.0 0.0 0.00 0.21 0.02 77 1013.9
20191210150119 64 360 0.0 0.0 0.00 0.21 0.02 76 1013.9
20191210144710 65 360 0.0 3.0 0.00 0.21 0.02 76 1013.9
20191210143156 65 360 1.0 3.0 0.00 0.21 0.02 75 1013.7
20191210141737 66 360 1.0 4.0 0.00 0.21 0.02 74 1013.7
20191210140116 66 360 2.0 4.0 0.00 0.21 0.02 73 1013.7
20191210134647 67 360 2.0 4.0 0.00 0.26 0.02 71 1013.5
20191210133517 67 360 2.0 5.0 0.00 0.26 0.02 70 1013.5
20191210131642 67 360 2.0 5.0 0.00 0.26 0.02 71 1013.4
20191210130114 67 360 3.0 5.0 0.00 0.26 0.02 72 1013.4
20191210124628 67 360 4.0 6.0 0.00 0.26 0.02 71 1013.6
20191210123150 67 360 0.0 5.0 0.00 0.26 0.02 70 1013.5
20191210121627 68 360 2.0 6.0 0.00 0.26 0.02 67 1013.4
20191210120221 68 360 3.0 6.0 0.00 0.26 0.02 67 1013.3
20191210114736 68 360 4.0 10.0 0.00 0.28 0.02 67 1013.4
20191210113149 67 360 2.0 6.0 0.00 0.28 0.02 68 1013.3
20191210111613 67 360 3.0 8.0 0.00 0.28 0.02 70 1013.2
20191210110059 66 360 5.0 11.0 0.00 0.28 0.02 71 1013.2
20191210104709 66 360 4.0 6.0 0.00 0.28 0.02 73 1013.3
20191210103103 66 360 3.0 8.0 0.01 0.28 0.02 74 1013.4
20191210101540 65 360 2.0 9.0 0.01 0.28 0.02 77 1013.5
20191210100030 64 360 3.0 8.0 0.01 0.28 0.02 80 1013.8
20191210094541 63 360 3.0 12.0 0.01 0.28 0.02 82 1014.1
20191210093015 62 360 3.0 8.0 0.00 0.28 0.01 85 1014.3
20191210091556 61 360 3.0 6.0 0.00 0.28 0.01 86 1014.6
20191210090012 61 360 1.0 11.0 0.00 0.28 0.01 87 1014.9
20191210084508 60 360 3.0 8.0 0.00 0.28 0.01 87 1015.2
20191210083010 60 360 3.0 10.0 0.00 0.28 0.01 86 1015.5
20191210081522 60 360 4.0 9.0 0.00 0.28 0.01 86 1015.7
20191210080012 60 360 3.0 10.0 0.00 0.28 0.01 85 1015.7
20191210074508 61 360 3.0 9.0 0.00 0.28 0.01 85 1015.7
20191210073031 61 360 3.0 6.0 0.00 0.28 0.01 84 1015.1
20191210071509 61 360 1.0 6.0 0.00 0.28 0.01 84 1015.5
20191210070002 61 360 2.0 5.0 0.00 0.28 0.01 85 1015.5
20191210064713 61 360 2.0 6.0 0.00 0.28 0.01 85 1015.3
20191210063246 60 360 2.0 5.0 0.00 0.28 0.01 86 1015.3
20191210061718 60 360 4.0 10.0 0.00 0.28 0.01 86 1015.3
20191210060209 59 360 3.0 6.0 0.00 0.28 0.01 88 1015.2
20191210054649 59 360 3.0 8.0 0.00 0.31 0.01 89 1015.0
20191210053131 59 360 3.0 10.0 0.00 0.31 0.01 89 1014.8
20191210051651 58 360 0.0 6.0 0.00 0.31 0.01 89 1014.9
20191210050241 58 360 2.0 5.0 0.00 0.31 0.01 89 1014.7
20191210044627 58 360 2.0 9.0 0.00 0.34 0.01 89 1014.6
20191210043142 58 360 1.0 9.0 0.00 0.34 0.01 89 1014.4
20191210041640 58 360 3.0 9.0 0.00 0.34 0.01 89 1014.5
20191210040208 58 360 2.0 8.0 0.00 0.34 0.01 88 1014.6
20191210034626 58 360 2.0 8.0 0.00 0.34 0.01 88 1014.3
20191210033154 58 360 2.0 6.0 0.00 0.34 0.01 89 1014.3
20191210031608 58 360 2.0 5.0 0.00 0.34 0.01 88 1014.1
20191210030109 58 360 2.0 4.0 0.00 0.34 0.01 89 1013.9
20191210024559 58 360 1.0 4.0 0.00 0.34 0.01 89 1014.0
20191210023139 58 360 3.0 6.0 0.00 0.34 0.01 89 1013.6
20191210021621 58 360 1.0 6.0 0.00 0.34 0.01 90 1013.7
20191210020219 58 360 2.0 5.0 0.00 0.34 0.01 90 1013.7
20191210014559 58 360 2.0 6.0 0.00 0.34 0.01 90 1013.7
20191210013049 58 360 1.0 6.0 0.00 0.34 0.01 91 1013.9
20191210011600 58 360 2.0 5.0 0.00 0.34 0.01 91 1013.9
20191210010042 58 360 2.0 6.0 0.00 0.34 0.01 91 1013.7
20191210004611 58 360 2.0 5.0 0.00 0.39 0.01 91 1013.9
20191210003108 58 360 1.0 4.0 0.01 0.39 0.01 91 1014.1
20191210001557 58 360 0.0 4.0 0.01 0.39 0.01 91 1014.1
20191210000140 58 360 2.0 5.0 0.01 0.39 0.01 91 1014.1
20191209234537 58 360 3.0 8.0 0.01 0.39 0.01 91 1014.0
20191209233102 58 360 2.0 5.0 0.00 0.38 0.00 91 1014.2
20191209231544 58 360 2.0 5.0 0.00 0.38 0.00 91 1014.2
20191209230037 58 360 1.0 6.0 0.00 0.38 0.00 92 1014.2
20191209224547 58 360 2.0 6.0 0.00 0.38 0.00 91 1014.1
20191209223102 58 360 0.0 5.0 0.00 0.38 0.00 91 1014.2
20191209221556 58 360 1.0 5.0 0.00 0.38 0.00 91 1014.2
20191209220036 58 360 3.0 6.0 0.00 0.38 0.00 91 1014.2
20191209214612 58 360 2.0 5.0 0.00 0.38 0.38 92 1014.2
20191209213055 58 360 0.0 4.0 0.00 0.38 0.38 92 1014.3
20191209211527 58 360 2.0 5.0 0.00 0.38 0.38 92 1014.1
20191209210055 58 360 3.0 6.0 0.00 0.38 0.38 92 1014.2
20191209204541 58 360 2.0 5.0 0.00 0.38 0.38 92 1014.4
20191209203026 58 360 3.0 8.0 0.00 0.38 0.38 92 1014.4
20191209201538 58 360 2.0 4.0 0.00 0.38 0.38 92 1014.5
20191209200037 58 360 3.0 5.0 0.02 0.38 0.38 91 1014.5
20191209194534 58 360 2.0 4.0 0.02 0.76 0.38 91 1014.5
20191209193054 58 360 2.0 5.0 0.02 0.76 0.38 91 1014.5
20191209191531 59 360 3.0 5.0 0.02 0.76 0.38 91 1014.4
20191209190036 59 360 0.0 4.0 0.00 0.74 0.35 90 1014.5
20191209184539 59 360 2.0 6.0 0.00 0.74 0.35 90 1014.5
20191209183021 59 360 2.0 5.0 0.00 0.74 0.35 90 1014.5